Location: Unspecified
(51.5147°N, 7.4673°E)
Time: 10:14:17
(UTC+01:00)

Transit 2A - Visible Passes

Search period start: 17 February 2026 00:00
Search period end: 27 February 2026 00:00
Orbit: 589 x 955 km, 66.7° (Epoch: 16 February)

Date Brightness Start Highest point End Pass type
(mag) Time Alt. Az. Time Alt. Az. Time Alt. Az.
17 Feb 8.0 18:22:27 10° NW 18:27:05 21° N 18:31:32 10° ENE visible
17 Feb 6.9 20:06:11 10° NNW 20:11:57 38° NE 20:12:42 36° NE visible
17 Feb 7.6 21:49:25 10° NW 21:53:03 36° NW 21:53:03 36° NW visible
18 Feb 7.3 19:29:47 10° NNW 19:35:17 31° NNE 19:37:34 24° ENE visible
18 Feb 6.7 21:13:00 10° NW 21:17:55 58° NW 21:17:55 58° NW visible
18 Feb 8.9 22:57:16 10° WNW 22:58:16 13° WNW 22:58:16 13° WNW visible
19 Feb 7.5 18:53:20 10° NNW 18:58:34 27° NNE 19:02:28 14° ENE visible
19 Feb 6.2 20:36:36 10° NW 20:42:46 71° NE 20:42:49 71° NE visible
19 Feb 8.3 22:20:24 10° NW 22:23:10 22° WNW 22:23:10 22° WNW visible
20 Feb 6.5 20:00:13 10° NW 20:06:17 55° NE 20:07:46 43° E visible
20 Feb 7.6 21:43:43 10° NW 21:48:08 35° W 21:48:08 35° W visible
21 Feb 6.8 19:23:51 10° NNW 19:29:44 43° NE 19:32:47 24° E visible
21 Feb 6.7 21:07:10 10° NW 21:13:02 53° WSW 21:13:09 53° WSW visible
22 Feb 7.1 18:47:28 10° NNW 18:53:07 35° NNE 18:57:53 12° E visible
22 Feb 6.3 20:30:42 10° NW 20:36:45 73° WSW 20:38:15 50° S visible
22 Feb 8.6 22:15:33 10° WNW 22:18:36 15° W 22:18:36 15° W visible
23 Feb 6.2 19:54:17 10° NW 20:00:25 85° NE 20:03:25 29° SE visible
23 Feb 8.1 21:38:23 10° WNW 21:42:44 22° WSW 21:43:47 21° WSW visible
24 Feb 6.3 19:17:53 10° NW 19:23:59 65° NE 19:28:40 15° SE visible
24 Feb 7.8 21:01:34 10° NW 21:06:40 30° WSW 21:09:03 22° SSW visible
25 Feb 6.6 18:41:30 10° NW 18:47:29 50° NE 18:52:56 10° ESE visible
25 Feb 7.3 20:24:56 10° NW 20:30:32 42° WSW 20:34:27 17° S visible
26 Feb 6.8 19:48:24 10° NW 19:54:18 59° WSW 19:59:39 10° SSE visible
26 Feb 8.9 21:34:25 10° W 21:36:02 11° W 21:37:35 10° WSW visible
